User: anonymous   Login
Location: Feydey
(46.3431°N, 7.0106°E)
Time: 00:19:25
(UTC+00:00)
Language:

Cosmos 389 Rocket - Orbit

View from above orbital plane
View from above orbital plane
View from above satellite
View from above satellite

Ground track
Ground track

The orbit data is extracted from the following two-line orbital elements,

1 04814U 70113B   21262.57005745  .00001916  00000-0  51678-4 0  9993
2 04814  81.1428 324.7664 0024313 127.2799 233.0662 15.36939461773618
Epoch (UTC): 19 September 2021 13:40:52
Eccentricity: 0.0024313
inclination: 81.1428°
perigee height: 438 km
apogee height: 472 km
right ascension of ascending node: 324.7664°
argument of perigee: 127.2799°
revolutions per day: 15.36939461
mean anomaly at epoch: 233.0662°
orbit number at epoch: 77361

The dashed part of the orbit path shows where the satellite is in the earth's shadow,  

DLR